カタログに戻る

SL-14 DEB

運用中PO
NORAD 19226·DEBRIS·🇷🇺 Russia

打ち上げ Oct 26, 1978 から Plesetsk Cosmodrome

Loading…

次のパス (今後24時間)

TLE

最新Source: Space-Track

元期: Sep 14, 2026, 14:12 UTC

1 19226U 78100V   26257.59234176 -.00000001  00000-0 -12131-3 0  9999
2 19226  82.5296 299.6348 0047547  63.0517  92.1205 12.00849478676892

AllMySatでSL-14 DEBをリアルタイム追跡

Download on the App Store